Wilmington, OH

11:50 PM EDT on May 24, 2017 (GMT -0400)
Airborne

Weather History for KILN - April, 2013

Change the Weather History Date:

Tuesday, April 2, 2013

  Actual Average (KFFO) Record (KFFO)
Temperature  
Mean Temperature 33 °F -  
Max Temperature 45 °F 57 °F 75 °F (2003)
Min Temperature 21 °F 35 °F 20 °F (2013)
Degree Days  
Heating Degree Days 32    
Moisture  
Dew Point 16 °F    
Average Humidity 51    
Maximum Humidity 89    
Minimum Humidity 28    
Precipitation  
Precipitation 0.00 in - - ()
Sea Level Pressure  
Sea Level Pressure 30.26 in    
Wind  
Wind Speed 7 mph (WNW)    
Max Wind Speed 16 mph    
Max Gust Speed 21 mph    
Visibility 10 miles    
Events      
Averages and records for this station are not official NWS values.
T = Trace of Precipitation, MM = Missing Value Source: NWS Daily Summary

Daily Weather History Graph

Daily Weather History Graph

Search for Another Location

Airport or City:

Trip Planner

Search our weather history database for the weather conditions in past years. The results will help you decide how hot, cold, wet, or windy it might be!

Date:

Astronomy

Apr. 02, 2013 Rise Set
Actual Time 7:17 AM EDT 8:00 PM EDT
Civil Twilight 6:50 AM EDT 8:27 PM EDT
Nautical Twilight 6:18 AM EDT 8:59 PM EDT
Astronomical Twilight 5:45 AM EDT 9:32 PM EDT
Moon 2:02 AM EDT (4/2) 12:08 PM EDT (4/2)
Length of Visible Light 13h 37m
Length of Day
12h 42m
Waning Gibbous, 56% of the Moon is Illuminated
Apr 2
Waning Gibbous
Apr 3
Last Quarter
Apr 10
New
Apr 18
First Quarter
Apr 25
Full

Hourly Weather History & Observations

Time (EDT) Temp. Windchill Dew Point Humidity Pressure Visibility Wind Dir Wind Speed Gust Speed Precip Events Conditions
12:54 AM 32.0 °F 23.0 °F 17.1 °F 54% 30.17 in 10.0 mi North 11.5 mph - N/A   Clear
1:54 AM 28.9 °F 21.9 °F 16.0 °F 58% 30.19 in 10.0 mi North 6.9 mph - N/A   Clear
2:54 AM 28.0 °F 24.2 °F 16.0 °F 61% 30.19 in 10.0 mi North 3.5 mph - N/A   Clear
3:54 AM 27.0 °F 23.0 °F 15.1 °F 61% 30.20 in 10.0 mi North 3.5 mph - N/A   Clear
4:54 AM 25.0 °F - 16.0 °F 69% 30.21 in 10.0 mi Calm Calm - N/A   Clear
5:54 AM 21.9 °F - 19.0 °F 89% 30.24 in 10.0 mi Calm Calm - N/A   Clear
6:54 AM 21.9 °F - 18.0 °F 85% 30.25 in 10.0 mi Calm Calm - N/A   Clear
7:54 AM 23.0 °F - 19.9 °F 88% 30.28 in 10.0 mi Calm Calm - N/A   Clear
8:54 AM 30.0 °F 25.2 °F 19.9 °F 66% 30.29 in 10.0 mi SW 4.6 mph - N/A   Clear
9:54 AM 33.1 °F 26.9 °F 16.0 °F 50% 30.30 in 10.0 mi SW 6.9 mph - N/A   Clear
10:54 AM 36.0 °F 29.0 °F 16.0 °F 44% 30.30 in 10.0 mi WNW 9.2 mph - N/A   Scattered Clouds
11:54 AM 39.0 °F 31.8 °F 17.1 °F 41% 30.31 in 10.0 mi NW 11.5 mph - N/A   Clear
12:54 PM 39.0 °F 32.8 °F 16.0 °F 39% 30.29 in 10.0 mi West 9.2 mph - N/A   Partly Cloudy
1:54 PM 42.1 °F 35.7 °F 16.0 °F 35% 30.27 in 10.0 mi WNW 11.5 mph 20.7 mph N/A   Clear
2:54 PM 43.0 °F 35.4 °F 17.1 °F 35% 30.25 in 10.0 mi West 16.1 mph 19.6 mph N/A   Clear
3:54 PM 43.0 °F 35.7 °F 14.0 °F 31% 30.24 in 10.0 mi WNW 15.0 mph 20.7 mph N/A   Clear
4:54 PM 45.0 °F 38.9 °F 15.1 °F 30% 30.23 in 10.0 mi West 12.7 mph 19.6 mph N/A   Clear
5:54 PM 44.1 °F 37.1 °F 12.9 °F 28% 30.24 in 10.0 mi WNW 15.0 mph - N/A   Clear
6:54 PM 43.0 °F 37.2 °F 14.0 °F 31% 30.25 in 10.0 mi WNW 10.4 mph - N/A   Clear
7:54 PM 39.9 °F 33.4 °F 15.1 °F 36% 30.26 in 10.0 mi WNW 10.4 mph - N/A   Partly Cloudy
8:54 PM 37.9 °F 32.7 °F 16.0 °F 41% 30.27 in 10.0 mi NNW 6.9 mph - N/A   Clear
9:54 PM 36.0 °F 30.3 °F 17.1 °F 46% 30.29 in 10.0 mi NNW 6.9 mph - N/A   Clear
10:54 PM 35.1 °F 32.2 °F 16.0 °F 46% 30.31 in 10.0 mi WNW 3.5 mph - N/A   Clear
11:54 PM 33.1 °F - 18.0 °F 54% 30.31 in 10.0 mi Calm Calm - N/A   Clear